When you browse on this site, cookies collect data to enhance your experience and personalize the content and advertising you see.
Visit our Privacy Policy to learn more. By continuing to use the site, you agree to this use of cookies and data.
  • In Österreich
  • Länderverzeichnis
  • Für 7 Tage
  • Wassertemperatur
  • Satellitenkarten
  • Wetterkarte
  • News
  • Widgets
  • user-avatar
    Anmelden

    Stündliche Wetter Lubumbaschi

    Heute, 21 November, Mittwoch

    Zeit Temperatur Niederschläge Wind Luftdruck Luftfeuchtigkeit
    00:00 +27°C° 0 mm 5 m/S 720 mmHg 17%
    01:00 +26°C° 0 mm 5 m/S 720 mmHg 17%
    02:00 +26°C° 0 mm 5 m/S 720 mmHg 18%
    03:00 +25°C° 0 mm 5 m/S 720 mmHg 18%
    04:00 +25°C° 0 mm 5 m/S 720 mmHg 19%
    05:00 +23°C° 0 mm 4 m/S 720 mmHg 20%
    06:00 +25°C° 0 mm 5 m/S 720 mmHg 19%
    07:00 +26°C° 0 mm 6 m/S 721 mmHg 19%
    08:00 +27°C° 0 mm 6 m/S 721 mmHg 19%
    09:00 +30°C° 0 mm 6 m/S 721 mmHg 17%
    10:00 +33°C° 0 mm 6 m/S 721 mmHg 16%
    11:00 +36°C° 0 mm 5 m/S 721 mmHg 14%
    12:00 +37°C° 0 mm 5 m/S 720 mmHg 13%
    13:00 +38°C° 0 mm 4 m/S 719 mmHg 13%
    14:00 +39°C° 0 mm 3 m/S 719 mmHg 12%
    15:00 +38°C° 0 mm 3 m/S 718 mmHg 13%
    16:00 +38°C° 0 mm 3 m/S 718 mmHg 13%
    17:00 +38°C° 0 mm 3 m/S 718 mmHg 14%
    18:00 +36°C° 0 mm 4 m/S 718 mmHg 15%
    19:00 +34°C° 0 mm 4 m/S 719 mmHg 17%
    20:00 +33°C° 0 mm 4 m/S 719 mmHg 19%
    21:00 +32°C° 0 mm 5 m/S 719 mmHg 19%
    22:00 +32°C° 0 mm 6 m/S 719 mmHg 19%
    23:00 +30°C° 0 mm 6 m/S 719 mmHg 20%

    Morgen, 22 November, Donnerstag

    Zeit Temperatur Niederschläge Wind Luftdruck Luftfeuchtigkeit
    00:00 +29°C° 0 mm 6 m/S 719 mmHg 20%
    01:00 +29°C° 0 mm 5 m/S 719 mmHg 21%
    02:00 +28°C° 0 mm 5 m/S 719 mmHg 22%
    03:00 +28°C° 0 mm 5 m/S 719 mmHg 23%
    04:00 +27°C° 0 mm 5 m/S 718 mmHg 25%
    05:00 +27°C° 0 mm 5 m/S 718 mmHg 26%
    06:00 +27°C° 0 mm 5 m/S 719 mmHg 26%
    07:00 +28°C° 0 mm 6 m/S 720 mmHg 26%
    08:00 +29°C° 0 mm 7 m/S 720 mmHg 26%
    09:00 +33°C° 0 mm 7 m/S 720 mmHg 23%
    10:00 +35°C° 0 mm 7 m/S 721 mmHg 21%
    11:00 +38°C° 0 mm 6 m/S 721 mmHg 19%
    12:00 +39°C° 0 mm 6 m/S 720 mmHg 18%
    13:00 +40°C° 0 mm 5 m/S 719 mmHg 17%
    14:00 +41°C° 0 mm 4 m/S 718 mmHg 16%
    15:00 +40°C° 0 mm 4 m/S 718 mmHg 16%
    16:00 +40°C° 0 mm 4 m/S 718 mmHg 16%
    17:00 +40°C° 0 mm 4 m/S 717 mmHg 17%
    18:00 +37°C° 0 mm 4 m/S 718 mmHg 18%
    19:00 +35°C° 0 mm 5 m/S 718 mmHg 19%
    20:00 +34°C° 0 mm 5 m/S 719 mmHg 20%
    21:00 +33°C° 0 mm 6 m/S 719 mmHg 19%
    22:00 +32°C° 0 mm 6 m/S 719 mmHg 19%
    23:00 +32°C° 0 mm 6 m/S 719 mmHg 18%

    übermorgen, 23 November, Freitag

    Zeit Temperatur Niederschläge Wind Luftdruck Luftfeuchtigkeit
    00:00 +30°C° 0 mm 6 m/S 719 mmHg 19%
    01:00 +29°C° 0 mm 6 m/S 719 mmHg 19%
    02:00 +29°C° 0 mm 6 m/S 719 mmHg 19%
    03:00 +28°C° 0 mm 5 m/S 719 mmHg 20%
    04:00 +28°C° 0 mm 5 m/S 719 mmHg 20%
    05:00 +27°C° 0 mm 5 m/S 719 mmHg 21%
    06:00 +28°C° 0 mm 6 m/S 720 mmHg 20%
    07:00 +29°C° 0 mm 7 m/S 720 mmHg 19%
    08:00 +29°C° 0 mm 8 m/S 721 mmHg 17%
    09:00 +33°C° 0 mm 8 m/S 721 mmHg 16%
    10:00 +35°C° 0 mm 7 m/S 721 mmHg 14%
    11:00 +38°C° 0 mm 7 m/S 722 mmHg 12%
    12:00 +39°C° 0 mm 7 m/S 721 mmHg 11%
    13:00 +40°C° 0 mm 6 m/S 720 mmHg 11%
    14:00 +41°C° 0 mm 6 m/S 719 mmHg 11%
    15:00 +40°C° 0 mm 6 m/S 719 mmHg 11%
    16:00 +39°C° 0 mm 6 m/S 718 mmHg 11%
    17:00 +39°C° 0 mm 6 m/S 718 mmHg 11%
    18:00 +36°C° 0 mm 6 m/S 719 mmHg 11%
    19:00 +34°C° 0 mm 6 m/S 719 mmHg 12%
    20:00 +33°C° 0 mm 6 m/S 719 mmHg 12%
    21:00 +32°C° 0 mm 6 m/S 720 mmHg 12%
    22:00 +30°C° 0 mm 6 m/S 720 mmHg 13%
    23:00 +30°C° 0 mm 7 m/S 720 mmHg 13%

    24 November, Samstag

    Zeit Temperatur Niederschläge Wind Luftdruck Luftfeuchtigkeit
    00:00 +29°C° 0 mm 7 m/S 720 mmHg 13%
    01:00 +29°C° 0 mm 7 m/S 720 mmHg 14%
    02:00 +28°C° 0 mm 7 m/S 719 mmHg 14%
    03:00 +28°C° 0 mm 7 m/S 719 mmHg 15%
    04:00 +27°C° 0 mm 7 m/S 719 mmHg 15%
    05:00 +27°C° 0 mm 7 m/S 720 mmHg 16%
    06:00 +27°C° 0 mm 7 m/S 720 mmHg 16%
    07:00 +28°C° 0 mm 8 m/S 721 mmHg 16%
    08:00 +29°C° 0 mm 9 m/S 722 mmHg 15%
    09:00 +32°C° 0 mm 8 m/S 722 mmHg 14%
    10:00 +34°C° 0 mm 8 m/S 722 mmHg 13%
    11:00 +37°C° 0 mm 8 m/S 722 mmHg 11%
    12:00 +38°C° 0 mm 7 m/S 721 mmHg 11%
    13:00 +39°C° 0 mm 7 m/S 720 mmHg 11%
    14:00 +40°C° 0 mm 6 m/S 719 mmHg 10%
    15:00 +39°C° 0 mm 6 m/S 719 mmHg 11%
    16:00 +39°C° 0 mm 6 m/S 719 mmHg 11%
    17:00 +38°C° 0 mm 6 m/S 719 mmHg 11%
    18:00 +35°C° 0 mm 6 m/S 719 mmHg 12%
    19:00 +34°C° 0 mm 6 m/S 720 mmHg 13%
    20:00 +32°C° 0 mm 6 m/S 720 mmHg 13%
    21:00 +30°C° 0 mm 6 m/S 720 mmHg 13%
    22:00 +29°C° 0 mm 7 m/S 720 mmHg 13%
    23:00 +29°C° 0 mm 7 m/S 721 mmHg 13%

    25 November, Sonntag

    Zeit Temperatur Niederschläge Wind Luftdruck Luftfeuchtigkeit
    00:00 +28°C° 0 mm 7 m/S 720 mmHg 14%
    01:00 +27°C° 0 mm 7 m/S 720 mmHg 15%
    02:00 +26°C° 0 mm 6 m/S 720 mmHg 16%
    03:00 +26°C° 0 mm 6 m/S 720 mmHg 17%
    04:00 +24°C° 0 mm 6 m/S 720 mmHg 18%
    05:00 +24°C° 0 mm 6 m/S 720 mmHg 19%
    06:00 +24°C° 0 mm 7 m/S 721 mmHg 20%
    07:00 +26°C° 0 mm 8 m/S 721 mmHg 20%
    08:00 +26°C° 0 mm 9 m/S 722 mmHg 20%
    09:00 +28°C° 0 mm 9 m/S 722 mmHg 18%
    10:00 +31°C° 0 mm 9 m/S 722 mmHg 16%
    11:00 +33°C° 0 mm 8 m/S 722 mmHg 14%
    12:00 +35°C° 0 mm 8 m/S 721 mmHg 13%
    13:00 +37°C° 0 mm 8 m/S 720 mmHg 12%
    14:00 +38°C° 0 mm 7 m/S 719 mmHg 11%
    15:00 +38°C° 0 mm 7 m/S 719 mmHg 12%
    16:00 +36°C° 0 mm 7 m/S 718 mmHg 12%
    17:00 +35°C° 0 mm 6 m/S 718 mmHg 12%
    18:00 +34°C° 0 mm 6 m/S 719 mmHg 13%
    19:00 +32°C° 0 mm 6 m/S 719 mmHg 14%
    20:00 +29°C° 0 mm 6 m/S 720 mmHg 15%
    21:00 +28°C° 0 mm 6 m/S 720 mmHg 16%
    22:00 +28°C° 0 mm 6 m/S 720 mmHg 16%
    23:00 +27°C° 0 mm 7 m/S 720 mmHg 16%

    26 November, Montag

    Zeit Temperatur Niederschläge Wind Luftdruck Luftfeuchtigkeit
    00:00 +26°C° 0 mm 6 m/S 719 mmHg 17%
    01:00 +24°C° 0 mm 6 m/S 719 mmHg 18%
    02:00 +25°C° 0 mm 5 m/S 719 mmHg 19%
    03:00 +23°C° 0 mm 5 m/S 719 mmHg 20%
    04:00 +23°C° 0 mm 5 m/S 719 mmHg 21%
    05:00 +22°C° 0 mm 5 m/S 719 mmHg 21%
    06:00 +23°C° 0 mm 5 m/S 719 mmHg 21%
    07:00 +24°C° 0 mm 6 m/S 720 mmHg 20%
    08:00 +26°C° 0 mm 7 m/S 720 mmHg 19%
    09:00 +28°C° 0 mm 7 m/S 720 mmHg 17%
    10:00 +32°C° 0 mm 7 m/S 720 mmHg 15%
    11:00 +35°C° 0 mm 6 m/S 720 mmHg 13%
    12:00 +36°C° 0 mm 6 m/S 719 mmHg 12%
    13:00 +37°C° 0 mm 5 m/S 718 mmHg 12%
    14:00 +40°C° 0 mm 4 m/S 717 mmHg 11%
    15:00 +38°C° 0 mm 4 m/S 717 mmHg 12%
    16:00 +38°C° 0 mm 4 m/S 717 mmHg 12%
    17:00 +37°C° 0 mm 4 m/S 716 mmHg 13%
    18:00 +35°C° 0 mm 4 m/S 717 mmHg 14%
    19:00 +34°C° 0 mm 5 m/S 718 mmHg 15%
    20:00 +32°C° 0 mm 5 m/S 718 mmHg 17%
    21:00 +30°C° 0 mm 5 m/S 718 mmHg 17%
    22:00 +29°C° 0 mm 5 m/S 718 mmHg 17%
    23:00 +28°C° 0 mm 6 m/S 718 mmHg 17%
    Mehr zeigen